SCP
0 0 0 0 0 0 0 0 0 0 0 0 0 0 0 0 0 0 0 0 0 0
0 0 0 0 0 0 0 0 0 0 0 0 0 0 0 0 0 0 0 0 0 0
0 0 0 0 0 0 0 0 0 0 0 0 0 0 0 0 0 0 0 0 0 0
0 0 0 0 0 0 0 0 0 0 0 0 0 0 0 0 0 0 0 0 0 0
0 0 0 0 0 0 0 0 0 0 0 0 0 0 0 0 0 0 0 0 0 0
0 0 0 0 0 0 0 0 0 0 0 0 0 0 0 0 0 0 0 0 0 0
0 0 0 0 0 0 0 0 0 0 0 0 0 0 0 0 0 0 0 0 0 0
0 0 0 0 0 0 0 0 0 0 0 0 0 0 0 0 0 0 0 0 0 0
0 0 0 0 0 0 0 0 0 0 0 0 0 0 0 0 0 0 0 0 0 0
0 0 0 0 0 0 0 0 0 0 0 0 0 0 0 0 0 0 0 0 0 0
0 0 0 0 0 0 0 0 0 0 0 0 0 0 0 -0 -0 0 0 0 0 0
0 0 0 0 0 0 0 0 0 0 0 0 0 0 -0 -0 0 0 0 0 0 0
0 0 0 0 0 0 0 0 0 0 0 0 0 0 -0 -0 -0 0 0 0 0 0
0 0 0 0 0 0 0 0 0 0 0 0 0 0 -0 -0 -0 0 0 0 0 0
Wind_Speed_500mb
27 29 33 34 39 43 45 47 52 57 59 61 61 63 63 64 65 63 61 62 60 64
27 31 34 38 40 42 46 50 55 58 58 57 58 60 59 63 62 60 62 64 64 65
28 31 35 39 42 48 54 56 57 57 56 59 59 58 58 60 61 59 64 66 69 69
27 32 37 42 48 52 55 55 56 58 60 62 63 61 61 61 62 63 66 66 70 71
30 38 45 50 51 50 52 53 56 59 61 63 64 64 62 65 63 64 67 70 70 74
35 43 49 48 48 48 50 54 56 59 62 64 66 68 66 64 63 63 66 67 71 77
42 45 44 44 44 47 51 56 58 59 62 66 69 69 65 59 58 66 74 75 78 86
41 39 40 41 44 48 52 55 58 62 65 67 67 67 59 65 71 75 78 83 86 86
35 36 37 41 46 50 53 55 58 62 65 67 65 58 59 64 72 76 80 81 80 85
32 33 37 42 47 50 53 56 59 62 65 63 65 59 60 63 70 78 78 84 88 88
31 35 39 44 48 51 52 55 60 63 63 64 64 57 61 65 70 81 87 87 89 90
32 37 42 46 48 50 53 55 58 61 65 63 61 60 62 66 76 84 93 82 85 84
33 39 43 45 47 50 49 56 60 61 62 60 65 67 65 68 77 90 87 95 90 90
32 38 42 43 44 47 51 55 59 61 62 67 65 66 63 65 79 86 93 99 93 89
Wind_Direction_500mb
315 318 319 321 320 319 316 313 313 313 312 312 311 310 308 304 303 301 295 292 287 286
315 318 320 322 319 314 311 311 311 311 311 310 309 307 303 301 300 294 291 290 288 285
316 320 319 318 316 314 314 313 313 313 312 310 309 306 303 299 298 292 289 288 287 285
316 315 315 317 317 316 316 316 315 314 313 311 310 309 304 300 295 292 290 288 285 285
317 319 319 319 319 318 317 317 316 314 312 312 313 310 302 297 294 291 290 288 287 286
320 319 318 319 319 319 318 318 317 315 313 314 314 310 304 300 296 293 291 290 292 294
319 318 319 319 319 321 320 319 318 317 316 317 314 310 306 301 298 295 297 303 302 300
317 317 318 319 322 322 322 321 320 320 318 317 315 314 310 306 304 302 304 305 302 300
314 316 320 323 325 325 325 323 322 321 319 321 319 312 308 304 303 302 302 303 304 304
314 319 325 327 328 327 326 324 323 324 324 323 326 317 309 307 305 306 308 308 306 305
321 324 327 330 329 327 326 326 326 326 328 328 326 319 312 312 312 313 312 312 311 304
325 327 331 332 330 330 328 328 328 332 330 330 330 329 318 318 317 315 316 316 311 307
330 331 332 332 332 332 330 332 334 330 333 335 335 336 324 324 320 320 319 320 313 312
332 332 334 335 334 335 337 334 337 333 336 340 334 323 325 325 323 323 321 319 317 313
Wind_Speed_850mb
27 29 33 34 39 43 45 47 52 57 59 61 61 63 63 64 65 63 61 62 60 64
27 31 34 38 40 42 46 50 55 58 58 57 58 60 59 63 62 60 62 64 64 65
28 31 35 39 42 48 54 56 57 57 56 59 59 58 58 60 61 59 64 66 69 69
27 32 37 42 48 52 55 55 56 58 60 62 63 61 61 61 62 63 66 66 70 71
30 38 45 50 51 50 52 53 56 59 61 63 64 64 62 65 63 64 67 70 70 74
35 43 49 48 48 48 50 54 56 59 62 64 66 68 66 64 63 63 66 67 71 77
42 45 44 44 44 47 51 56 58 59 62 66 69 69 65 59 58 66 74 75 78 86
41 39 40 41 44 48 52 55 58 62 65 67 67 67 59 65 71 75 78 83 86 86
35 36 37 41 46 50 53 55 58 62 65 67 65 58 59 64 72 76 80 81 80 85
32 33 37 42 47 50 53 56 59 62 65 63 65 59 60 63 70 78 78 84 88 88
31 35 39 44 48 51 52 55 60 63 63 64 64 57 61 65 70 81 87 87 89 90
32 37 42 46 48 50 53 55 58 61 65 63 61 60 62 66 76 84 93 82 85 84
33 39 43 45 47 50 49 56 60 61 62 60 65 67 65 68 77 90 87 95 90 90
32 38 42 43 44 47 51 55 59 61 62 67 65 66 63 65 79 86 93 99 93 89
Wind_Direction_850mb
315 318 319 321 320 319 316 313 313 313 312 312 311 310 308 304 303 301 295 292 287 286
315 318 320 322 319 314 311 311 311 311 311 310 309 307 303 301 300 294 291 290 288 285
316 320 319 318 316 314 314 313 313 313 312 310 309 306 303 299 298 292 289 288 287 285
316 315 315 317 317 316 316 316 315 314 313 311 310 309 304 300 295 292 290 288 285 285
317 319 319 319 319 318 317 317 316 314 312 312 313 310 302 297 294 291 290 288 287 286
320 319 318 319 319 319 318 318 317 315 313 314 314 310 304 300 296 293 291 290 292 294
319 318 319 319 319 321 320 319 318 317 316 317 314 310 306 301 298 295 297 303 302 300
317 317 318 319 322 322 322 321 320 320 318 317 315 314 310 306 304 302 304 305 302 300
314 316 320 323 325 325 325 323 322 321 319 321 319 312 308 304 303 302 302 303 304 304
314 319 325 327 328 327 326 324 323 324 324 323 326 317 309 307 305 306 308 308 306 305
321 324 327 330 329 327 326 326 326 326 328 328 326 319 312 312 312 313 312 312 311 304
325 327 331 332 330 330 328 328 328 332 330 330 330 329 318 318 317 315 316 316 311 307
330 331 332 332 332 332 330 332 334 330 333 335 335 336 324 324 320 320 319 320 313 312
332 332 334 335 334 335 337 334 337 333 336 340 334 323 325 325 323 323 321 319 317 313